{"data":{"norad_id":66622,"intl_designator":"2025-271F","name":"STARLINK-35950","alt_names":[],"object_type":"PAYLOAD","status":"ACTIVE","operator":null,"country":"US","launch_date":"2025-11-23","launch_site_code":"AFWTR","launch_vehicle":null,"mission":null,"orbit_class":"UNKNOWN","rcs_meters":null,"size_class":null,"mass_kg":null,"dimensions":null,"purposes":["comms"],"wikipedia_slug":null,"has_3d_model":false,"image_url":null,"decayed_at":null,"tle_current":{"epoch":"2026-09-20T10:14:51.000288Z","epoch_age_seconds":93212,"freshness":"FRESH","line1":"1 66622U 25271F   26263.42697917  .00002326  00000+0  79983-4 0  9995","line2":"2 66622  53.1574 313.8572 0001367  81.3291 278.7866 15.34387244 47409","mean_motion":15.34387244,"eccentricity":0.0001367,"inclination_deg":53.1574,"raan_deg":313.8572,"arg_perigee_deg":81.3291,"mean_anomaly_deg":278.7866,"bstar":7.9983e-5,"rev_number":4740,"period_min":93.848538276821,"perigee_km":461.80600594632,"apogee_km":463.67630203362,"semimajor_km":6840.87815399,"source":"CELESTRAK","updated_at":"2026-09-21T09:00:35.982970Z"}}}